FREGAT R/B, 40352

Orbit data source: Space-Track

FREGAT R/B, 40352 is space debris originally from a launch on Thu, 18 Dec 2014 UTC launched from the French Guiana (FRGUI). Debris objects in space refer to the collection of defunct objects orbiting the Earth. Examples of debris include non-operational satellites, rocket bodies, and fragments generated from explosions, collisions, or faulty payload assembly.

Loading next visibility...
FREGAT R/B details
Identifier
40352, 2014-083E
Orbit
Active
Last TLE update15 hours ago
Origin
Flag of CISLavochkin (CIS)
ManufacturerLavochkin
MissionSpacecraft
Bus & MotorFREGAT, Unknown motor
Mass1,050 kg wet, 1,050 kg dry
Launch date (UTC)
2014-12-18 (10 years ago)
Launch vehicleUnknown
Launch site
French Guiana (FRGUI)
Object type
Payload
Rocket body
Debris
Shape & HBRIrr, 3.3 m
Radar Cross Section11.055 m², Large (>1 m²)

Expand to show TLE details & history

TLE from 15 hours ago
0 FREGAT R/B
1 40352U 14083E   24339.82221270 -.00000007  00000-0  00000-0 0  9993
2 40352   0.0644  95.9106 0006875 285.0283 339.0940  5.20672105189547
Epoch: 2024-12-04T19:43Z
Definitive object data (Epoch: 2024-12-04T19:43:59.177Z)
Latitude-0.06216°
Longitude-10.1084°
Altitude7,672.593 km
Speed5.329 km/s
True Right ascension00h 00m 00s
True Declination0° 03' 43"
Sunlit
Object was in daylight at TLE epoch
Visualization TLE readout
Latitude-0.00235°
Longitude79.67697°
Altitude7,678.046 km
Speed5.327 km/s
Apparent Right ascension04h 50m 46s
Apparent Declination-20° 39' 06"
Sunlit
Object is in daylight
Visualization observer readout
Local Sidereal Time08:40:42
Azimuth233.062° WSW
Elevation9.177°
Doppler factor1
Orbital elements
Apogee altitude7,695.979 km
Perigee altitude7,676.64 km
Semi-major axis14,064.446 km
Eccentricity0.0006875
Inclination0.0644°
RAAN95.9106°
Arg. of periapsis285.0283°
True anomaly339.06587°
Mean anomaly339.094°
Eccentric anomaly339.07993°
Mean motion1.30125 °/min
BSTARUnknown
Orbital period276.66 mins
Loading maneuver chart data...
Loading historical data...
Loading historical data...
Loading historical data...
Loading historical data...
Loading historical data...
Loading historical data...
Loading historical data...
Other satellites on launch #83 in the year 2014 (2014-12-18 UTC)

FREGAT R/B Visibility forecast

Observer location: undefined°, undefined

Span
Click to sort rows by Start time (UTC) header in descending order
Start Az.
Max El. time (UTC)
Max El. Az.
Max El.
End time (UTC)
End Az.
73 mins2024-12-05 10:44:16.900Z230.938° WSW2024-12-05 11:20:16.900Z180.692° SSW23.779°2024-12-05 11:57:16.900Z128.895° SE
72 mins2024-12-05 16:27:16.900Z230.381° WSW2024-12-05 17:03:16.900Z179.85° S23.788°2024-12-05 17:39:16.900Z129.451° SE
72 mins2024-12-05 22:10:16.900Z229.789° WSW2024-12-05 22:45:16.900Z180.556° SSW23.683°2024-12-05 23:22:16.900Z128.807° SE
72 mins2024-12-06 03:52:16.900Z230.126° WSW2024-12-06 04:28:16.900Z179.408° S23.662°2024-12-06 05:04:16.900Z129.078° SE
67 mins2024-12-06 09:35:16.900Z229.396° WSW2024-12-06 10:10:16.900Z179.961° S23.764°2024-12-06 10:42:16.900Z133.875° SE
|